This demonstration page uses our WeatherBlox Daily Observations layout. Learn more.

Left ArrowRight Arrow

Hourly Observations for September 18, 2018

Temp ( °F °C ) Dew Point ( °F °C ) Humidity (%) Winds ( mph kmh ) Pressure ( in mb ) Visibility ( mi km ) Precip ( " mm )
12:53 am 00:53 Clear 68 20 67 19.4 96 96 Calm 29.93 1014 10 16 0.00 0.00
1:53 am 01:53 Clear 66 18.9 64 17.8 93 93 Calm 29.93 1014 10 16 0.00 0.00
2:53 am 02:53 Clear 65 18.3 63 17.2 93 93 Calm 29.93 1014 10 16 0.00 0.00
3:53 am 03:53 Clear with Mist and Fog 65 18.3 63 17.2 93 93 Calm 29.93 1014 6 10 0.00 0.00
4:41 am 04:41 Partly Cloudy with Mist and Fog 65 18.3 63 17.2 93 93 Calm 29.94 1014 4 6 0.00 0.00
4:46 am 04:46 Mostly Cloudy with Mist and Fog 64 17.8 63 17.2 96 96 Calm 29.94 1014 3 4 0.00 0.00
4:53 am 04:53 Mostly Cloudy with Mist and Fog 64 17.8 63 17.2 96 96 Calm 29.93 1014 2 3 0.00 0.00
5:00 am 05:00 Mostly Cloudy with Mist and Fog 65 18.3 63 17.2 93 93 Calm 29.94 1014 1 1 0.00 0.00
5:53 am 05:53 Mostly Cloudy with Fog 65 18.3 64 17.8 97 97 Calm 29.94 1014 0 0 0.00 0.00
6:53 am 06:53 Mostly Cloudy with Fog 65 18.3 64 17.8 97 97 Calm 29.95 1014 0 0 0.00 0.03
7:53 am 07:53 Mostly Cloudy with Fog 66 18.9 65 18.3 96 96 Calm 29.96 1015 0 0 0.00 0.00
8:53 am 08:53 Cloudy with Mist and Fog 68 20 68 20 100 100 Calm 29.97 1015 1 2 0.00 0.00
8:58 am 08:58 Cloudy with Mist and Fog 68 20 68 20 100 100 WNW 3 6 29.97 1015 2 3 0.00 0.00
9:05 am 09:05 Cloudy 70 21.1 69 20.6 97 97 W 5 7 29.97 1015 7 11 0.00 0.00
9:13 am 09:13 Mostly Cloudy 70 21.1 69 20.6 97 97 W 3 6 29.97 1015 8 13 0.00 0.00
9:53 am 09:53 Mostly Sunny 71 21.7 70 21.1 96 96 Calm 29.98 1015 10 16 0.00 0.00
10:53 am 10:53 Mostly Sunny 77 25 71 21.7 82 82 Calm 29.97 1015 10 16 0.00 0.00
11:53 am 11:53 Mostly Cloudy 82 27.8 72 22.2 72 72 Calm 29.96 1014 10 16 0.00 0.00
12:53 pm 12:53 Mostly Cloudy 85 29.4 69 20.6 59 59 Calm 29.94 1014 10 16 0.00 0.00
1:53 pm 13:53 Sunny 89 31.7 67 19.4 48 48 VRB 3 6 29.93 1013 10 16 0.00 0.00
2:53 pm 14:53 Sunny 89 31.7 68 20 50 50 SW 6 9 29.91 1013 10 16 0.00 0.00
3:53 pm 15:53 Mostly Sunny 89 31.7 68 20 50 50 S 5 7 29.90 1012 10 16 0.00 0.00
4:53 pm 16:53 Partly Cloudy 82 27.8 69 20.6 65 65 W 9 15 29.90 1013 10 16 0.00 0.00
5:53 pm 17:53 Mostly Cloudy 80 26.7 70 21.1 71 71 Calm 29.89 1012 10 16 0.01 0.25
6:53 pm 18:53 Cloudy 81 27.2 73 22.8 77 77 Calm 29.89 1012 10 16 0.00 0.00
7:53 pm 19:53 Mostly Clear 75 23.9 72 22.2 90 90 Calm 29.89 1012 10 16 0.00 0.00
8:53 pm 20:53 Partly Cloudy 73 22.8 71 21.7 94 94 Calm 29.90 1012 9 14 0.00 0.00
9:53 pm 21:53 Partly Cloudy 71 21.7 70 21.1 96 96 Calm 29.92 1013 9 14 0.00 0.00
10:53 pm 22:53 Clear 71 21.7 69 20.6 94 94 Calm 29.92 1013 9 14 0.00 0.00
11:53 pm 23:53 Clear 70 21.1 68 20 93 93 Calm 29.93 1013 9 14 0.00 0.00

Powered by AerisWeather